Location: Hains Lake
(37.8540°N, 99.8578°W)
Time: 21:09:11
(UTC+00:00)

Meteor 1-5 Rocket - Pass Details

Date: 11 December 2019
Orbit: 788 x 916 km, 81.2° (Epoch: 26 January)

Event Time Altitude Azimuth Distance (km) Brightness Sun altitude
Rises 12:39:19 0° 186° (S) 3,536 7.6 -12.6°
Reaches altitude 10° 12:41:47 10° 186° (S) 2,596 6.9 -12.2°
Maximum altitude 12:47:45 87° 99° (E) 913 4.4 -11.1°
Drops below altitude 10° 12:53:38 10° 10° (N) 2,567 6.6 -10.0°
Sets 12:56:04 0° 10° (N) 3,495 7.3 -9.5°
